Lid_Strength_Index
10 12 14 11 10 11 11 13 14 12 11 12 12 12 10 9 10 10 10 9 9 9 8 7 7 7 6 5 3 2 2 1 1 1 1 1 1 1 0 -0 0 1 2 2
11 14 11 9 11 11 12 13 13 12 10 11 12 12 11 10 10 10 10 10 9 8 8 8 8 8 7 7 6 5 2 2 1 2 1 1 1 0 0 -0 0 1 1 1
12 11 8 10 13 12 13 13 14 13 12 12 14 14 12 10 10 9 9 9 9 9 9 9 9 9 8 8 8 6 5 4 2 2 1 0 1 1 1 1 1 1 1 2
10 10 10 11 12 12 15 12 12 12 14 16 14 19 14 12 11 11 10 10 11 10 9 9 8 8 7 7 6 6 6 6 6 1 2 2 2 3 1 1 0 0 1 2
12 12 11 11 11 10 13 11 12 12 14 15 16 18 16 14 13 12 12 10 10 9 9 8 8 7 7 6 6 5 6 7 6 4 2 2 2 1 2 1 1 1 1 1
11 11 10 11 10 10 10 11 12 14 15 19 16 17 17 15 13 13 11 10 9 9 9 8 8 7 7 6 5 4 7 7 5 3 2 2 3 2 2 3 2 1 1 1
11 12 11 10 12 11 12 13 18 19 19 20 16 17 15 13 13 12 11 9 9 9 9 9 8 8 7 7 6 4 3 5 6 5 3 3 3 2 2 2 2 2 2 2
15 15 12 10 11 13 13 13 16 20 20 19 17 19 16 11 11 11 9 9 9 9 8 8 8 8 8 7 7 5 4 4 3 3 3 3 3 3 3 2 2 3 3 3
15 15 11 11 11 11 13 14 12 16 20 19 17 15 12 12 11 12 11 10 10 9 9 8 8 8 8 7 7 6 5 4 3 3 3 3 4 3 3 3 3 3 3 4
12 15 12 11 10 11 12 11 15 16 21 22 19 18 16 13 13 11 11 10 10 9 9 9 8 8 8 8 7 7 6 6 6 4 4 4 3 3 4 5 5 5 5 5
11 12 15 12 13 13 13 13 13 13 15 19 20 18 15 13 11 12 11 10 10 9 9 9 9 8 8 8 8 8 8 8 8 7 7 7 7 7 8 8 8 8 8 7
11 12 15 14 12 11 12 12 12 15 17 16 16 17 12 12 11 10 10 9 9 9 9 9 9 9 9 9 9 9 9 9 9 9 9 9 9 9 10 10 9 9 9 9
12 14 17 16 14 12 13 13 12 12 14 18 19 18 11 11 11 9 9 9 9 9 9 9 9 9 10 10 10 10 10 10 9 10 10 10 10 10 11 10 10 10 10 10
9 13 15 16 15 14 15 13 13 13 16 16 16 15 13 12 11 10 10 9 9 9 9 10 10 10 10 10 10 10 10 10 10 10 11 11 11 11 11 11 11 11 11 12
10 15 14 13 13 14 15 15 14 14 13 16 14 15 13 11 11 10 10 10 10 9 10 10 10 10 11 11 11 11 11 11 11 11 11 12 12 12 12 12 12 13 14 13
10 16 14 16 12 13 15 14 13 13 13 14 14 15 12 11 11 11 10 10 10 9 9 9 9 10 11 11 11 11 11 11 11 12 12 13 13 14 14 14 14 14 14 14
12 15 16 18 14 15 17 15 14 13 12 13 15 13 11 11 10 10 9 8 9 9 9 10 10 11 11 11 11 12 12 12 13 14 15 15 15 15 15 15 14 15 15 14
13 14 15 18 18 22 15 12 11 12 11 11 11 11 11 10 10 9 8 8 8 8 9 10 10 11 12 12 12 12 13 14 15 15 15 15 15 16 15 15 15 15 15 15
11 13 15 17 17 16 14 13 13 14 13 11 11 11 11 11 11 11 10 8 8 9 9 10 11 12 13 13 13 14 15 15 16 16 16 16 16 17 16 17 16 16 17 17
12 12 14 15 19 20 16 14 12 11 15 14 11 11 12 12 14 12 10 10 10 10 10 12 13 13 14 15 15 15 16 16 17 17 16 16 16 17 18 17 18 17 18 16
15 15 15 16 18 17 14 13 11 17 16 15 13 12 12 13 12 12 11 12 12 12 13 14 14 16 16 15 15 16 17 18 18 18 18 18 18 19 18 18 18 19 19 18
15 16 16 15 17 18 14 13 14 13 15 14 13 13 13 13 13 13 13 14 14 14 15 15 17 17 17 16 16 17 18 18 19 19 20 21 21 20 19 22 22 22 22 22
17 15 16 14 15 14 14 14 13 12 13 14 14 13 12 14 14 14 14 15 15 16 16 16 17 18 19 18 17 18 19 20 21 23 23 24 23 22 21 24 23 22 23 23
15 14 16 15 15 14 13 13 13 13 13 13 13 13 12 14 14 14 15 16 16 16 16 17 18 19 19 19 19 20 20 22 24 25 24 23 24 24 24 21 21 23 23 23
15 14 16 16 15 14 13 13 13 13 14 14 13 13 12 14 14 15 16 16 16 17 17 16 17 18 20 20 21 22 23 24 23 24 23 23 22 24 22 20 22 19 19 19
15 15 15 16 12 12 13 13 12 13 14 14 14 14 13 13 14 14 15 16 17 18 18 18 19 21 22 22 23 25 25 25 26 24 23 23 23 23 20 20 19 16 14 13